TimeHST,TemperatureF,Dew PointF,Humidity,Sea Level PressureIn,VisibilityMPH,Wind Direction,Wind SpeedMPH,Gust SpeedMPH,PrecipitationIn,Events,Conditions,WindDirDegrees,DateUTC
12:53 AM,68.0,64.0,87,30.05,10.0,Variable,3.5,-,N/A,,Clear,0,2013-12-20 10:53:00
1:53 AM,66.9,64.0,90,30.05,10.0,Calm,Calm,-,N/A,,Clear,0,2013-12-20 11:53:00
2:31 AM,66.2,64.4,94,30.03,10.0,Calm,Calm,-,N/A,,Partly Cloudy,0,2013-12-20 12:31:00
2:53 AM,66.0,64.0,93,30.04,10.0,Calm,Calm,-,N/A,,Partly Cloudy,0,2013-12-20 12:53:00
3:53 AM,66.0,63.0,90,30.04,10.0,Calm,Calm,-,N/A,,Clear,0,2013-12-20 13:53:00
4:53 AM,64.9,63.0,93,30.05,10.0,Calm,Calm,-,N/A,,Clear,0,2013-12-20 14:53:00
5:53 AM,66.0,64.0,93,30.06,10.0,Calm,Calm,-,N/A,,Clear,0,2013-12-20 15:53:00
6:53 AM,64.9,64.0,97,30.06,10.0,Calm,Calm,-,N/A,,Clear,0,2013-12-20 16:53:00
7:53 AM,68.0,64.9,90,30.07,10.0,Variable,3.5,-,N/A,,Clear,0,2013-12-20 17:53:00
8:53 AM,73.9,66.9,79,30.08,10.0,Variable,3.5,-,N/A,,Clear,0,2013-12-20 18:53:00
9:53 AM,77.0,66.9,71,30.09,10.0,Calm,Calm,-,N/A,,Clear,0,2013-12-20 19:53:00
10:53 AM,78.1,66.9,68,30.08,10.0,ESE,6.9,-,N/A,,Clear,110,2013-12-20 20:53:00
11:53 AM,79.0,68.0,69,30.04,10.0,ESE,5.8,-,N/A,,Clear,120,2013-12-20 21:53:00
12:53 PM,81.0,66.9,62,30.01,10.0,East,8.1,-,N/A,,Partly Cloudy,100,2013-12-20 22:53:00
1:53 PM,81.0,66.0,60,29.99,10.0,ESE,8.1,19.6,N/A,,Mostly Cloudy,120,2013-12-20 23:53:00
2:53 PM,79.0,69.1,72,29.99,10.0,SE,10.4,-,N/A,,Mostly Cloudy,130,2013-12-21 00:53:00
3:53 PM,78.1,68.0,71,30.00,10.0,Variable,6.9,-,N/A,,Scattered Clouds,0,2013-12-21 01:53:00
4:53 PM,75.0,64.9,71,30.01,10.0,Variable,3.5,-,N/A,,Scattered Clouds,0,2013-12-21 02:53:00
5:53 PM,73.9,66.0,76,30.03,10.0,Calm,Calm,-,N/A,,Partly Cloudy,0,2013-12-21 03:53:00
6:53 PM,73.0,66.0,79,30.05,10.0,Calm,Calm,-,N/A,,Clear,0,2013-12-21 04:53:00
7:53 PM,70.0,66.0,87,30.07,10.0,Calm,Calm,-,N/A,,Mostly Cloudy,0,2013-12-21 05:53:00
8:53 PM,69.1,64.9,87,30.07,10.0,Calm,Calm,-,N/A,,Clear,0,2013-12-21 06:53:00
9:53 PM,66.9,64.9,93,30.07,10.0,Calm,Calm,-,N/A,,Clear,0,2013-12-21 07:53:00
10:53 PM,69.1,64.9,87,30.07,10.0,Calm,Calm,-,N/A,,Partly Cloudy,0,2013-12-21 08:53:00
11:30 PM,68.0,64.4,88,30.04,10.0,Calm,Calm,-,N/A,,Partly Cloudy,0,2013-12-21 09:30:00
11:53 PM,68.0,64.9,90,30.06,10.0,Calm,Calm,-,N/A,,Partly Cloudy,0,2013-12-21 09:53:00